Theta_e
321 321 320 319 318 319 320 320 318 318 318 318 317 317 316 316 316 316 316 315 315 315 315 315 314 314 314 314 312 311 310 309 309 307 306 306 306 307 307 307 306 306 306 305 305 305 305 304 304 304 304 303 303 303 304 304 304 303 303 302 303 303 303 304 303 303 302 302 302
321 321 319 316 316 318 320 319 318 318 318 319 318 318 317 317 316 316 316 316 316 316 315 315 315 315 314 314 313 312 311 310 309 308 307 306 307 307 307 307 306 306 305 305 305 305 305 304 304 304 303 303 303 303 303 303 303 303 302 302 302 302 302 302 302 303 303 302 302
321 321 320 319 319 319 320 320 319 319 319 319 319 318 318 317 317 317 317 317 317 317 316 315 315 315 315 315 313 313 311 311 310 309 308 307 307 307 307 307 306 305 304 305 305 305 304 304 304 303 302 303 303 303 303 303 302 302 301 301 301 301 301 300 301 301 301 301 301
321 321 321 320 320 320 320 320 320 320 320 320 319 319 318 318 318 318 318 318 318 317 316 316 316 316 315 314 314 313 312 309 310 309 309 308 307 307 307 307 306 305 305 305 305 305 305 305 304 303 303 303 303 303 303 302 302 301 301 302 302 301 300 300 300 300 300 299 299
321 321 321 321 321 321 320 321 321 321 320 320 319 319 319 319 318 318 318 317 317 317 317 317 317 317 316 315 314 314 312 311 308 308 309 308 308 308 307 306 306 306 305 305 305 305 305 305 304 303 303 304 303 303 303 303 301 301 301 301 301 301 300 300 300 300 300 299 299
322 321 322 322 321 321 321 321 321 321 321 320 319 319 318 319 319 318 318 318 318 318 318 317 316 316 316 316 315 314 313 312 310 309 309 309 308 308 307 306 306 306 305 305 305 306 306 305 304 304 304 304 303 303 303 303 302 301 300 300 300 300 300 300 300 300 300 299 298
322 322 322 322 322 321 321 321 321 322 321 320 320 319 319 319 319 319 319 319 319 319 318 316 316 316 316 317 316 315 314 312 312 311 310 310 309 308 307 307 306 306 306 305 305 305 305 305 304 303 303 302 303 303 303 302 301 301 300 300 300 300 300 300 300 300 300 299 299
323 323 322 322 322 322 321 321 321 321 321 320 320 320 320 320 320 320 320 320 319 319 318 317 318 318 318 317 316 315 314 313 312 311 311 311 310 309 308 307 306 306 306 305 305 305 305 304 304 304 304 303 303 303 303 302 301 301 301 301 301 301 301 300 300 300 300 299 299
323 323 323 323 323 322 322 321 321 321 321 320 320 320 321 320 320 320 320 320 319 318 319 318 319 318 318 317 317 316 315 314 313 312 312 311 310 309 308 308 307 306 306 306 306 305 304 304 304 304 304 303 303 303 303 302 302 301 301 302 302 302 301 301 300 300 300 300 300
324 323 323 323 324 323 322 322 321 321 321 321 321 321 320 317 319 320 320 320 319 319 319 319 319 318 318 317 317 317 316 315 314 313 312 311 310 309 309 308 308 307 307 307 307 306 306 305 304 304 304 304 304 303 303 302 301 301 301 301 302 302 302 301 300 300 300 299 300
324 324 324 323 324 323 322 323 322 321 321 321 321 321 321 318 319 320 320 320 320 320 320 319 319 318 318 317 317 317 317 316 315 314 312 310 310 310 310 309 308 308 307 307 307 307 306 305 305 304 304 305 305 304 304 302 302 301 302 303 304 303 302 301 300 300 300 299 300
324 324 324 324 324 323 323 323 322 322 321 321 321 321 321 321 321 321 320 320 320 320 320 320 319 318 318 317 317 317 316 317 316 315 313 311 311 310 310 309 309 309 308 307 307 307 306 305 305 305 305 305 305 306 305 304 303 303 304 305 305 304 303 301 300 300 300 300 299
324 324 324 324 324 324 323 323 322 322 322 321 321 321 321 322 321 321 320 320 320 320 320 320 319 319 318 318 318 317 317 317 316 315 314 312 311 311 310 310 309 309 309 308 308 307 306 306 306 305 305 305 305 306 307 306 306 306 307 307 306 305 303 302 301 300 300 300 299
323 323 323 324 324 323 323 323 322 322 322 322 322 322 322 322 321 321 321 321 320 320 320 320 319 319 318 318 318 318 318 317 316 315 314 313 312 311 311 310 310 310 310 309 309 308 308 307 307 306 306 306 306 307 308 308 308 309 309 310 308 306 304 303 302 301 300 300 299
323 323 323 324 324 323 323 323 322 323 322 322 322 323 322 322 322 321 321 321 321 320 320 320 319 319 318 319 319 319 318 317 316 315 314 313 313 312 311 311 311 311 312 311 311 310 310 309 308 308 307 307 307 308 308 309 310 311 312 311 309 306 305 304 303 302 300 300 299
323 323 323 323 323 323 323 323 323 322 322 323 323 323 323 322 322 322 321 321 321 321 320 320 320 320 319 318 318 318 318 318 316 315 314 314 313 313 312 312 312 312 313 313 312 312 311 310 310 309 308 308 308 308 308 310 311 312 311 310 308 307 305 305 304 302 301 301 300
322 322 322 323 323 323 323 322 322 323 323 323 323 323 323 322 323 322 320 320 321 321 320 320 320 320 319 318 318 317 317 317 316 315 314 314 313 313 312 312 312 313 313 313 313 313 312 311 311 310 310 309 309 309 310 311 311 311 310 309 307 306 305 304 304 302 302 301 300
321 322 322 322 322 322 322 322 323 322 323 323 323 323 323 323 323 322 321 320 321 321 320 320 320 320 320 319 318 318 316 316 315 315 314 314 313 312 312 312 312 313 314 313 313 314 313 312 311 311 310 310 310 310 311 312 311 310 309 308 307 306 305 304 304 303 302 301 301
321 321 322 322 322 322 322 321 322 322 323 322 323 323 323 322 323 322 322 321 321 321 321 320 320 320 320 319 319 318 316 316 315 315 314 314 313 313 312 312 312 313 313 314 314 314 314 313 312 311 310 310 310 311 311 311 311 310 309 308 307 306 305 304 304 303 303 302 302
321 321 321 322 322 322 322 321 322 322 322 323 322 322 322 322 322 322 321 322 321 321 321 320 320 320 319 319 319 318 317 316 316 315 315 314 314 313 312 312 313 313 313 313 314 315 315 314 312 311 310 310 310 310 310 310 310 309 309 308 307 306 305 304 303 303 303 303 303
320 321 321 321 321 322 322 322 322 322 322 322 322 322 322 322 322 322 322 322 322 321 321 320 319 319 319 319 319 319 318 317 316 316 315 315 314 313 313 313 312 312 312 313 314 314 314 313 312 311 311 311 311 310 310 310 309 309 308 308 308 307 306 304 304 304 304 304 304
320 321 321 321 322 321 322 322 322 322 322 323 322 322 322 322 322 322 322 322 322 322 321 320 320 320 319 319 319 319 319 318 318 318 317 316 315 315 314 313 313 313 313 314 313 313 313 312 312 312 312 311 311 310 309 308 308 308 308 308 308 307 306 305 304 304 304 303 304
321 322 321 321 321 320 320 321 322 322 322 322 321 321 322 322 322 322 322 323 321 321 321 321 320 320 320 319 319 319 319 319 319 319 318 318 317 316 315 314 313 313 313 313 313 314 313 313 313 313 312 311 310 309 308 308 307 308 308 307 307 306 305 305 304 303 303 304 303
322 323 323 322 322 321 320 320 321 321 321 321 321 321 321 321 321 322 322 322 322 321 322 321 321 321 320 320 319 319 319 319 319 319 318 318 317 316 315 314 313 313 313 313 314 313 313 313 314 313 312 311 310 309 309 308 308 308 308 307 306 305 305 304 303 303 303 304 304
322 323 323 324 323 322 321 321 320 320 320 321 321 321 322 322 322 322 322 322 322 322 322 322 322 322 321 321 320 320 319 319 319 318 318 317 317 316 315 314 313 313 313 312 307 305 305 306 310 312 313 312 311 310 310 309 309 308 307 306 305 304 304 303 303 303 303 303 304
322 322 322 322 322 322 322 321 321 321 321 321 321 321 322 322 322 322 322 322 322 322 322 322 322 321 320 321 320 320 319 319 319 319 318 317 316 315 314 313 313 313 313 309 304 301 300 301 303 306 310 314 312 311 310 309 308 307 306 306 305 304 303 303 303 303 303 303 304
321 321 321 322 321 321 321 321 321 321 321 321 321 321 321 322 322 322 322 322 323 323 323 323 323 320 319 321 320 320 319 319 320 320 320 318 316 314 313 312 312 314 313 307 302 300 299 300 300 302 306 313 312 311 310 309 308 307 306 305 305 305 304 304 304 304 304 304 305
321 321 321 321 320 320 321 321 321 321 321 321 321 321 321 321 322 322 322 323 323 323 323 323 323 322 321 322 321 320 320 320 320 320 319 318 316 314 313 313 314 314 311 304 300 299 299 299 299 300 302 307 311 311 310 309 308 307 307 306 305 305 305 305 306 305 305 304 305
321 321 321 320 320 320 320 320 321 321 321 321 321 322 322 322 322 322 322 323 323 323 324 323 323 323 323 322 321 321 321 320 320 319 319 317 316 315 315 315 316 313 307 299 299 298 298 298 298 298 299 302 308 310 310 309 309 308 307 306 306 306 306 306 306 305 305 305 306
320 320 320 320 320 320 320 320 320 321 321 322 322 321 322 322 322 322 322 322 323 323 324 325 325 324 323 322 322 321 321 320 320 319 318 317 317 317 316 316 317 313 306 297 298 298 298 298 298 297 298 299 304 308 310 310 310 309 309 308 307 307 307 306 306 306 306 306 306
320 320 320 319 319 319 319 320 321 321 322 322 322 322 322 322 322 322 322 322 323 323 324 325 326 324 323 323 322 322 320 320 320 319 318 317 316 317 318 319 318 314 306 296 297 298 298 298 297 297 296 296 302 307 310 310 310 310 309 308 308 307 307 306 307 307 307 306 306
320 319 319 319 319 319 320 321 321 321 321 322 322 321 322 322 323 323 323 323 324 324 325 325 324 324 323 324 323 322 321 320 319 319 319 318 318 318 318 318 318 313 305 295 297 297 298 298 297 296 295 295 300 306 310 310 310 310 309 309 309 308 307 306 306 306 306 306 305
319 319 320 319 319 320 320 320 321 321 321 321 321 321 321 322 323 324 324 323 323 324 324 323 322 322 323 323 323 323 322 320 319 318 317 317 318 318 318 317 317 310 300 294 296 297 297 297 297 296 295 294 300 306 309 310 309 309 309 308 308 308 308 308 307 307 306 306 306
319 319 319 319 319 320 320 321 321 321 321 321 321 321 321 322 322 323 322 322 323 323 323 323 322 323 323 323 323 322 321 319 319 319 319 319 319 319 318 317 315 305 295 293 295 295 296 296 296 296 295 294 301 306 309 309 308 308 308 307 307 307 307 307 307 307 306 306 305
319 319 319 319 319 320 320 320 320 321 321 320 320 321 322 322 322 323 322 322 322 322 324 323 323 323 323 323 323 321 320 319 319 319 319 319 318 317 316 315 311 301 293 293 294 294 295 295 296 295 295 295 301 306 307 307 308 308 308 306 305 304 304 303 304 304 305 305 305
318 318 319 319 319 319 320 320 320 320 320 320 320 321 322 323 323 323 323 320 321 322 323 323 323 323 323 323 323 321 319 319 318 317 317 317 317 316 315 313 308 300 293 293 293 294 294 295 295 295 296 299 304 306 307 307 307 306 304 304 301 300 299 299 299 300 302 303 303
318 318 318 319 319 319 319 320 320 320 320 320 321 321 322 322 323 323 323 321 322 322 322 322 322 322 322 322 320 318 317 317 316 316 315 315 315 315 314 310 305 299 293 292 293 293 294 294 295 295 297 301 305 306 306 306 303 300 298 297 295 295 295 295 296 296 297 298 299
318 318 318 318 318 319 319 320 320 320 320 320 321 322 322 322 322 323 322 318 321 322 322 322 322 322 321 319 314 312 311 312 311 312 312 313 313 312 311 307 302 297 294 291 292 293 294 295 294 295 297 302 305 306 304 301 298 295 294 293 292 292 292 293 293 294 293 293 293
318 318 318 318 318 319 319 319 320 320 321 321 322 322 322 322 322 322 320 318 321 322 322 322 321 319 317 313 310 308 306 305 304 304 305 306 304 303 303 302 299 296 293 291 291 292 293 294 294 295 297 301 305 304 301 297 295 293 293 292 291 291 291 291 291 291 290 290 290
317 317 318 318 318 318 318 319 319 320 321 321 321 321 322 322 321 319 318 319 321 321 320 320 317 315 311 307 307 305 302 299 297 296 296 296 295 294 295 296 296 295 293 291 290 291 292 293 294 294 297 302 304 302 299 296 294 293 292 291 290 290 289 289 289 289 288 288 287
317 317 317 317 318 318 318 318 319 320 321 322 321 321 321 320 318 317 318 319 319 318 317 315 313 310 307 303 302 299 296 294 292 292 292 291 291 291 291 293 295 296 295 293 291 291 291 292 293 294 296 301 302 300 298 296 294 293 291 290 289 288 287 287 287 287 287 286 286
Wind_Speed
12 11 9 9 8 8 8 8 7 7 7 8 8 8 8 8 9 8 8 8 8 8 8 9 9 9 10 12 13 13 13 13 13 13 13 14 13 13 13 12 12 11 11 11 11 10 9 10 9 7 6 6 7 7 7 6 7 8 8 9 8 8 9 10 10 11 11 11 9
13 12 11 9 9 8 8 8 7 7 7 7 8 8 9 8 9 9 9 9 8 8 8 8 9 10 11 13 13 13 13 13 14 14 13 14 14 14 13 12 12 11 11 11 11 10 9 9 9 8 7 6 6 7 7 7 7 8 9 10 8 7 7 8 9 10 10 10 9
14 13 12 11 11 10 9 9 9 10 10 9 8 8 8 8 8 8 8 9 9 9 9 8 9 11 12 13 12 12 12 13 13 13 13 13 13 14 13 12 12 12 11 10 10 9 9 9 8 7 7 7 7 7 7 8 7 8 9 10 8 6 5 6 7 7 7 7 8
14 14 13 13 14 14 12 10 11 12 12 10 9 9 9 8 8 8 8 9 10 10 10 9 10 10 11 12 12 12 12 12 13 14 13 13 13 14 14 13 12 12 11 11 11 11 10 10 8 7 7 8 9 8 7 6 7 7 7 7 6 6 5 5 6 5 5 5 6
15 15 14 13 15 15 14 12 13 12 11 9 9 9 8 8 8 8 8 9 9 9 10 11 10 10 11 11 13 13 13 13 13 13 13 13 13 14 14 13 13 12 12 12 12 12 11 11 8 7 7 8 8 7 7 7 7 6 6 5 5 5 5 6 5 4 4 4 5
15 15 15 14 15 15 13 13 14 13 11 10 10 10 10 9 9 9 9 10 10 10 11 12 11 11 11 12 12 13 13 13 13 13 13 13 13 13 13 14 14 13 12 12 12 12 12 11 8 7 7 7 7 8 8 8 7 7 6 6 5 5 5 6 5 4 4 6 7
16 16 16 16 16 15 14 13 13 12 11 10 12 13 13 11 11 12 12 11 10 10 10 10 11 11 11 12 12 12 13 12 13 13 14 13 13 13 13 14 14 14 13 13 13 12 12 11 8 7 7 7 7 8 9 8 8 7 7 7 6 6 6 7 6 5 6 9 10
16 17 17 17 17 16 16 15 14 13 12 11 13 14 15 15 15 14 13 12 11 10 10 9 11 13 13 13 13 13 13 13 13 13 13 13 13 14 14 14 14 14 14 13 13 12 11 10 8 8 8 7 7 8 9 10 10 9 9 9 7 6 6 7 7 6 7 10 11
16 16 17 17 17 17 16 16 15 14 13 13 14 15 15 15 16 15 14 12 11 11 11 10 12 14 14 14 14 14 13 13 13 13 13 13 14 14 14 14 15 15 14 13 12 13 12 9 8 8 8 7 7 8 9 11 11 11 10 9 7 7 7 7 7 8 8 10 11
16 16 17 17 17 17 17 16 16 16 16 15 16 16 15 14 15 14 13 11 11 11 12 12 13 14 14 15 15 14 13 13 13 13 13 13 14 14 14 14 14 14 13 12 12 13 13 10 9 9 9 8 9 10 10 11 12 12 10 7 7 7 9 9 9 9 10 10 11
17 17 16 16 17 17 17 16 16 16 16 16 17 16 16 15 15 14 13 12 12 13 14 14 14 14 14 14 14 14 13 12 12 13 14 14 14 15 15 15 14 14 13 13 12 12 12 11 11 12 12 10 10 11 11 11 11 11 10 7 8 10 12 13 11 10 10 11 11
18 17 17 16 17 17 17 16 15 15 16 17 17 17 16 16 16 15 15 14 15 15 15 14 14 14 14 12 13 13 13 13 13 13 14 15 15 15 15 15 15 14 14 14 13 12 11 12 13 14 14 13 11 10 11 12 12 11 11 10 11 12 14 14 12 10 9 10 11
18 18 17 17 17 17 17 17 15 15 16 17 17 17 16 16 16 16 16 16 16 15 14 14 14 14 14 13 13 13 13 13 14 14 14 15 15 15 15 15 15 15 15 14 14 13 13 14 14 15 15 15 13 12 12 13 12 12 12 11 12 13 14 14 12 10 9 9 9
19 18 18 18 18 17 17 17 15 15 16 18 17 17 16 16 16 16 16 16 16 16 15 14 13 13 13 14 14 13 13 13 14 15 15 15 15 15 16 15 16 16 15 14 15 15 15 15 16 16 16 17 15 15 14 13 12 12 12 12 12 13 14 13 11 10 9 9 9
19 19 19 19 18 17 16 17 15 15 16 17 17 16 16 15 15 15 15 16 17 16 15 14 13 13 14 15 14 14 14 14 15 16 16 16 16 16 16 16 17 17 17 16 16 16 16 17 16 16 16 17 16 16 14 13 12 12 12 11 12 12 12 12 11 10 10 10 9
20 20 20 19 19 18 17 17 14 14 16 17 17 16 15 14 14 15 16 17 16 15 14 15 15 14 14 14 15 15 14 14 15 16 17 17 17 17 17 17 18 18 18 18 17 17 16 16 16 16 16 16 16 15 14 13 12 11 11 10 11 11 11 11 11 10 10 11 11
21 21 20 20 20 20 19 18 16 15 16 17 17 17 16 15 14 14 15 16 15 15 15 17 16 15 14 14 14 14 15 15 16 16 17 17 18 18 18 18 18 18 18 19 18 18 17 16 15 14 15 15 14 13 13 13 11 10 10 10 11 11 11 11 11 11 11 12 13
21 21 21 21 21 22 21 20 19 18 18 19 18 17 16 15 15 15 15 16 16 16 17 18 17 16 15 16 15 14 14 15 16 17 17 18 18 18 18 18 18 18 18 18 18 18 18 17 15 13 13 13 12 12 12 12 11 10 10 11 11 11 11 12 12 12 12 13 14
22 22 22 22 23 23 23 22 22 21 20 20 18 18 17 17 17 16 16 17 17 17 18 18 17 17 17 18 17 16 15 16 18 18 18 18 18 18 18 18 18 18 18 18 18 18 17 16 14 13 12 12 12 12 11 11 11 11 12 13 13 13 13 13 13 13 14 14 15
23 23 23 23 23 23 23 23 23 22 21 19 19 19 19 19 18 18 18 18 17 17 18 18 18 18 18 19 19 18 17 16 18 19 19 18 18 18 18 18 18 18 19 19 18 17 16 15 14 13 12 12 12 12 12 12 12 13 13 13 13 13 14 14 15 15 15 15 16
24 23 23 23 23 23 23 23 23 22 22 20 20 20 20 19 19 19 19 19 18 18 18 18 19 20 20 21 21 21 20 17 17 18 19 18 18 18 18 17 18 18 18 18 17 17 16 15 14 13 13 13 14 14 14 13 13 13 13 12 12 13 14 14 15 15 16 16 17
24 23 23 23 23 22 23 22 22 21 21 21 21 21 20 20 19 19 19 18 18 18 19 20 21 21 22 22 22 21 20 16 16 17 17 16 17 17 17 16 17 17 18 18 17 15 14 13 13 13 13 14 15 15 14 13 13 13 13 13 13 13 14 14 14 15 16 17 17
23 22 22 21 21 21 21 21 21 21 21 21 21 21 21 20 20 19 19 19 19 20 21 20 21 21 22 22 21 20 18 16 16 15 15 15 15 16 15 15 16 17 18 17 15 14 13 12 12 13 14 14 15 14 13 12 12 12 12 13 13 13 13 12 13 14 16 17 17
22 20 19 17 19 20 20 19 20 20 20 20 20 20 20 20 19 19 19 20 21 22 22 20 19 19 20 20 19 19 18 18 17 16 16 16 15 16 16 15 16 17 16 13 12 11 11 10 11 12 13 13 13 12 12 12 12 12 12 13 13 12 12 11 13 14 16 17 16
22 20 18 16 17 18 18 19 19 20 20 20 20 20 20 20 19 20 20 21 22 23 23 21 20 18 17 16 17 17 18 19 19 18 17 16 16 16 15 14 14 14 12 10 10 10 10 9 10 11 11 12 11 11 11 11 11 12 12 12 12 12 12 11 13 14 16 17 15
22 21 20 19 19 19 20 20 20 21 20 20 19 19 20 20 20 21 22 23 23 22 22 21 20 17 16 15 16 17 17 18 18 18 18 17 16 16 15 13 12 11 10 9 10 11 12 12 11 11 10 10 10 10 10 10 10 10 11 11 11 11 12 12 13 14 15 15 15
22 21 21 21 21 21 21 21 21 21 21 20 20 20 20 20 20 21 23 23 22 22 20 19 18 17 15 15 16 18 18 17 17 17 17 17 17 16 15 13 12 10 9 10 12 14 15 16 14 12 11 10 10 10 9 8 9 9 10 11 11 12 13 14 15 16 16 15 15
21 21 21 21 21 21 21 21 21 21 22 22 22 21 21 21 22 23 23 23 22 20 18 17 16 14 12 12 15 18 18 17 16 16 16 17 16 16 16 14 13 11 11 12 14 17 18 18 16 15 13 10 9 9 9 8 8 8 9 9 11 12 14 15 15 15 15 14 14
22 21 20 20 21 21 21 21 22 22 23 23 22 22 22 22 23 24 23 22 21 19 16 14 12 11 10 12 14 16 17 17 16 15 15 16 16 16 16 16 15 14 13 14 17 18 18 18 17 16 15 12 9 7 7 7 8 8 8 8 10 11 12 13 13 13 12 12 12
22 21 20 20 21 21 22 22 23 23 22 21 22 23 23 24 24 24 23 21 20 18 15 12 10 11 12 14 14 15 15 15 14 14 15 16 17 17 17 16 16 14 14 16 18 19 18 18 17 17 16 14 10 8 7 7 7 8 8 8 9 11 12 12 13 13 12 11 12
22 22 21 21 21 22 23 23 23 23 22 20 21 22 23 24 23 22 20 18 15 13 11 11 12 14 15 15 13 13 13 13 13 14 15 17 18 18 17 16 16 14 14 17 18 18 18 17 17 17 17 16 11 9 8 8 8 8 8 9 10 12 12 12 13 13 14 13 13
23 23 22 22 23 23 24 24 24 23 22 21 22 22 23 23 22 19 15 11 9 9 10 11 13 15 15 13 11 11 12 13 13 14 15 16 17 17 17 15 15 12 12 17 17 17 17 17 16 16 16 16 12 10 9 9 9 9 9 10 12 13 13 12 12 14 16 16 14
23 23 24 24 24 25 25 25 24 23 22 21 22 22 22 22 20 16 13 9 8 9 11 12 14 14 14 12 11 12 13 14 15 15 15 15 16 16 15 13 12 9 9 15 16 16 16 16 16 16 16 16 12 11 10 10 9 8 9 10 11 13 14 14 14 14 15 16 14
23 23 24 25 25 25 25 25 24 23 22 22 22 22 22 21 20 17 13 9 8 9 10 12 13 12 12 11 11 12 13 13 14 14 14 14 14 14 13 11 8 7 10 15 16 16 16 16 16 16 17 17 12 11 10 10 9 9 9 9 9 9 10 12 13 13 13 13 11
22 23 24 25 25 25 24 24 24 23 22 23 23 23 22 21 20 17 13 9 9 9 10 10 10 9 9 9 10 12 13 13 13 13 13 12 12 12 12 10 6 7 11 16 16 16 17 16 17 17 17 15 11 9 9 10 9 9 9 8 6 5 5 6 7 7 8 9 9
22 23 23 24 24 24 24 24 23 23 23 23 23 22 21 20 19 16 12 8 8 9 11 10 9 8 8 9 9 9 10 10 10 10 11 11 12 12 11 8 7 7 10 14 15 16 17 17 17 17 16 12 9 8 8 8 7 6 5 4 3 3 2 1 0 1 3 5 6
22 22 22 22 22 23 23 22 22 23 23 23 22 22 21 20 18 14 10 7 9 10 11 10 10 9 9 8 6 5 4 6 7 8 10 11 11 11 10 8 6 6 6 9 12 14 16 17 18 18 15 11 8 8 7 6 4 4 4 5 5 5 4 4 4 3 2 1 2
22 21 21 21 21 22 21 21 21 22 22 22 21 20 19 19 16 12 8 7 10 11 11 10 10 9 8 7 6 6 5 4 4 5 6 7 7 7 7 7 5 4 4 4 7 11 14 17 18 17 15 10 9 8 7 5 5 5 5 6 6 6 6 5 5 5 6 6 5
21 20 20 20 20 20 20 20 20 20 21 21 20 18 17 16 13 9 6 8 10 10 10 10 9 8 7 8 9 8 8 8 6 5 4 4 4 4 5 6 5 4 3 2 4 8 12 15 17 17 14 10 9 8 6 6 6 6 6 6 6 6 6 6 6 6 8 10 11
18 18 18 19 19 19 19 20 20 19 18 18 17 16 15 14 9 6 6 7 8 8 8 8 8 8 8 9 9 9 10 10 9 9 8 8 8 8 7 7 6 6 5 4 2 4 8 12 15 15 14 10 8 7 7 7 7 7 7 6 6 6 6 6 6 7 8 10 11
15 16 17 17 17 18 18 19 19 17 15 14 14 13 10 8 6 7 7 6 7 7 7 7 9 10 10 9 9 10 11 11 10 10 9 9 9 9 8 7 7 7 6 6 4 2 5 8 11 12 11 8 7 7 7 7 7 8 7 7 6 6 6 6 6 7 7 8 9
Wind_Direction
197 196 194 194 197 199 202 204 200 197 194 195 196 196 197 201 204 205 205 206 210 212 212 213 211 210 209 207 204 203 204 205 206 207 208 209 211 211 211 210 208 205 204 204 200 198 197 199 202 205 207 207 211 214 216 214 211 213 215 217 221 223 223 221 220 218 215 215 215
200 199 197 195 197 200 203 205 202 198 197 198 200 199 199 202 206 207 208 208 211 212 213 214 213 211 209 207 205 204 204 205 206 206 208 210 212 212 211 211 209 207 206 205 202 200 199 200 203 206 210 209 212 215 216 215 212 213 217 219 221 222 223 225 226 223 220 219 219
203 202 200 198 199 202 204 206 205 203 202 202 203 203 202 203 208 211 211 211 212 212 213 215 214 213 211 207 205 204 205 205 205 206 207 209 211 211 211 211 210 209 208 207 205 204 203 201 204 208 211 211 211 214 215 216 212 214 218 220 220 219 220 227 229 227 224 222 221
205 204 204 203 203 204 206 208 207 206 205 204 206 207 208 207 210 214 216 217 215 215 214 214 215 213 211 208 206 206 206 206 205 206 207 209 210 211 211 211 210 209 209 208 207 207 206 203 205 209 214 216 216 216 215 209 207 212 218 221 221 219 220 226 227 225 222 222 222
206 207 207 206 206 207 209 211 210 208 207 206 206 208 210 211 213 215 218 218 216 215 215 215 216 215 212 208 206 206 207 206 205 206 207 209 210 210 209 209 209 209 208 208 208 208 206 203 205 210 214 216 215 216 214 205 201 206 215 220 220 220 222 227 226 221 217 221 221
207 208 209 210 208 209 211 213 212 211 209 207 207 209 210 212 212 214 216 219 220 219 218 218 219 218 215 209 207 206 206 206 205 206 208 209 209 208 207 208 208 208 207 206 206 205 204 203 207 211 214 216 217 217 212 201 197 201 209 214 215 216 220 224 221 215 213 222 223
208 209 211 212 210 210 212 214 214 212 211 211 211 211 212 214 215 216 217 221 222 220 219 217 219 219 217 212 208 206 205 205 206 207 208 209 207 206 206 206 207 207 206 205 203 203 203 203 208 211 212 210 213 212 207 197 194 199 206 214 212 211 214 221 217 213 214 221 224
211 212 213 214 213 212 212 213 214 213 212 214 214 214 215 217 218 218 219 221 222 221 219 218 218 219 219 216 212 209 207 206 207 207 207 208 207 206 206 205 206 207 207 204 202 201 203 205 211 214 213 208 210 207 203 196 196 201 208 216 215 212 213 222 218 214 214 220 223
213 213 214 215 215 214 214 213 213 214 215 217 218 217 217 218 220 221 221 221 222 222 222 221 220 219 219 219 216 213 209 207 207 207 207 207 206 205 206 205 206 207 206 205 204 204 206 208 214 217 216 211 210 206 201 196 199 203 208 215 218 218 217 221 219 215 214 217 220
214 213 214 215 216 215 215 214 215 216 217 220 221 221 219 219 221 222 223 223 223 223 223 224 221 219 218 219 218 216 212 210 208 207 206 207 205 205 205 206 205 205 205 204 205 206 208 210 214 217 217 214 212 206 199 194 198 202 205 207 218 227 231 227 219 214 212 213 215
215 213 213 213 214 215 215 215 216 217 219 221 223 223 221 220 221 223 224 225 226 225 225 225 222 220 218 218 218 217 215 212 209 207 206 207 206 205 205 206 204 203 202 203 204 206 208 210 214 216 216 213 211 206 199 193 197 201 203 203 214 228 234 232 219 210 207 210 209
215 215 214 214 214 214 215 216 217 218 219 222 223 224 224 223 222 223 224 226 227 228 227 226 223 221 220 218 218 217 216 214 211 209 208 207 206 205 204 204 202 200 200 202 203 205 209 211 212 214 213 211 209 206 202 197 200 206 210 210 211 220 227 228 217 208 204 204 204
216 216 216 215 214 214 215 216 218 219 220 222 223 224 225 225 224 223 224 225 227 228 228 226 224 223 222 220 218 217 216 214 212 211 209 207 205 204 203 201 199 198 200 203 205 207 210 212 212 213 213 212 211 210 208 204 206 212 217 219 216 219 223 224 214 206 201 199 197
216 217 217 216 215 215 215 216 218 220 221 222 223 224 225 226 225 224 224 225 226 228 228 227 225 224 223 222 221 219 216 214 213 212 211 209 205 203 202 200 198 199 202 207 209 212 213 215 214 214 214 215 215 214 213 211 214 219 223 225 223 222 222 222 212 203 196 193 193
216 217 217 217 216 215 216 216 218 220 222 223 223 223 223 225 224 224 224 225 226 227 227 227 226 224 223 222 222 220 217 215 213 213 212 212 208 205 202 201 200 202 207 212 214 216 217 218 217 215 215 216 217 217 216 217 221 225 227 227 224 223 221 219 209 199 191 189 190
216 217 217 217 216 217 217 217 218 220 222 223 223 222 222 223 223 223 223 224 225 225 225 226 226 225 223 220 220 218 217 215 214 214 215 214 210 207 204 203 203 206 209 213 216 217 218 218 218 217 217 217 218 219 219 221 225 228 229 227 225 222 219 215 206 198 192 190 192
216 217 216 216 217 217 218 218 219 220 222 223 222 222 221 222 222 222 222 222 223 224 224 225 225 224 223 220 217 216 216 216 215 215 215 215 212 209 206 205 206 207 209 211 214 216 217 216 217 217 218 218 219 220 222 224 225 226 225 226 225 222 219 213 206 200 197 197 200
216 216 216 216 217 218 218 219 220 221 222 223 222 221 221 220 221 221 221 221 222 223 224 224 224 224 224 222 219 216 215 216 217 216 216 216 213 211 208 207 207 208 209 210 213 214 215 215 214 215 216 218 219 222 224 226 225 224 223 224 224 222 219 214 210 205 203 203 205
216 216 216 216 216 217 218 219 220 221 222 223 222 221 220 220 220 221 222 221 220 221 222 223 223 224 224 224 221 219 217 217 218 218 217 216 215 212 210 207 207 207 208 211 213 214 214 214 211 210 211 215 219 223 226 227 228 227 227 226 225 224 221 217 214 211 208 205 207
216 216 216 215 216 217 217 218 220 221 222 222 222 222 221 220 220 221 222 222 220 219 220 221 222 223 224 224 223 221 220 218 218 218 218 216 215 213 211 207 206 207 209 211 213 214 213 212 208 205 207 213 221 225 227 227 228 229 229 229 228 226 224 220 217 214 211 208 207
217 217 216 216 216 216 217 218 219 220 221 222 222 222 221 221 220 220 221 222 220 218 218 220 221 223 223 224 223 222 221 220 218 218 218 216 215 213 211 207 205 206 208 210 212 212 211 209 206 206 209 215 221 224 225 224 225 226 228 230 230 228 225 220 216 213 212 210 209
219 218 218 217 217 217 217 218 219 219 220 221 221 221 221 221 220 220 219 220 219 219 219 219 220 222 222 223 223 222 222 220 218 217 216 215 214 212 210 206 204 206 207 208 208 208 207 207 209 211 215 218 221 221 221 219 221 224 227 230 231 228 224 217 212 211 211 212 212
220 219 219 219 218 218 218 219 219 219 219 220 220 220 220 220 220 219 218 218 218 219 219 219 219 220 222 222 222 222 221 220 218 216 214 212 212 211 208 206 205 206 207 206 204 204 206 209 213 216 218 219 221 220 219 217 220 223 227 230 231 228 222 214 210 210 212 214 214
219 218 218 219 218 218 218 218 218 218 219 219 219 218 219 219 220 219 219 218 219 220 220 220 219 220 221 222 223 222 221 220 219 216 214 211 211 210 208 207 208 209 208 205 202 203 206 210 213 215 216 217 219 220 220 219 221 223 226 229 229 227 222 216 213 213 215 217 216
218 217 216 216 215 215 216 216 216 217 218 218 218 218 219 219 221 221 222 222 222 222 223 223 222 221 220 221 222 222 221 221 220 218 215 212 210 209 209 209 210 211 209 205 203 203 203 204 207 209 211 212 214 216 218 218 218 220 221 223 223 222 221 218 217 219 220 221 219
218 217 216 216 215 214 214 215 215 216 217 217 218 218 219 221 223 225 226 227 226 226 225 225 225 223 220 219 219 219 220 221 221 219 217 213 211 209 209 210 211 210 208 204 201 199 197 198 199 201 204 205 207 211 214 215 213 213 215 216 215 215 215 215 217 219 221 222 221
218 218 217 216 216 215 214 214 214 214 215 216 216 217 219 222 225 227 228 229 229 228 227 226 225 223 221 218 218 218 218 219 220 221 220 217 212 209 208 209 210 211 210 207 197 192 190 191 192 192 194 199 203 206 208 211 209 210 211 214 214 214 214 213 214 216 218 219 220
219 218 217 216 215 215 214 213 213 213 214 214 214 215 218 221 226 229 231 231 230 228 226 225 224 223 221 219 219 219 218 217 219 221 222 220 215 210 207 208 211 217 218 207 190 184 183 185 185 186 187 192 199 203 205 207 207 208 211 215 217 218 218 217 216 216 216 216 217
219 218 216 215 214 214 213 212 212 212 212 213 213 214 216 220 225 229 231 233 231 228 225 223 221 219 218 220 221 221 219 218 218 220 221 220 217 214 212 213 219 221 212 188 178 176 178 181 182 182 183 185 192 199 204 205 207 210 212 216 219 220 220 220 220 219 217 215 216
218 216 215 213 213 213 213 213 213 213 212 212 213 214 217 220 224 227 230 233 232 230 225 219 216 215 217 220 221 221 219 217 216 216 218 219 220 220 219 219 223 216 197 174 172 174 177 179 181 181 182 182 187 196 205 210 213 214 216 218 220 222 222 224 224 223 221 218 218
216 216 215 213 213 214 215 216 216 216 215 215 216 218 220 223 225 227 229 231 231 229 223 216 215 216 218 219 218 218 218 217 215 214 215 217 220 223 224 224 223 212 189 170 172 175 177 179 180 181 181 182 186 194 204 211 215 217 218 220 221 221 221 223 224 224 224 222 218
216 215 214 214 215 216 217 218 218 218 219 219 221 223 225 227 228 228 226 224 222 219 216 215 216 217 217 216 215 216 217 219 217 215 214 215 219 221 223 222 218 205 179 167 172 175 178 179 179 180 181 182 187 196 205 211 215 218 221 222 222 221 220 220 223 224 224 222 216
216 215 215 215 216 217 218 219 219 219 220 221 224 226 228 230 230 227 222 212 206 206 210 215 217 217 215 211 212 216 221 224 221 217 213 212 215 217 217 217 210 190 163 164 171 176 178 179 178 179 181 184 189 199 206 210 213 217 221 223 224 224 224 223 224 223 221 218 212
216 215 215 216 217 218 219 220 219 219 220 222 225 227 228 229 229 225 217 203 198 200 206 213 217 217 214 209 211 215 219 222 220 216 211 208 208 209 209 209 198 167 153 163 170 174 176 177 176 177 180 184 191 200 205 206 210 215 219 222 223 223 224 225 225 223 218 209 203
216 215 216 217 219 220 220 221 220 220 220 222 224 226 227 228 227 222 213 197 193 197 204 210 213 215 213 209 210 212 214 215 213 210 205 201 200 200 199 197 177 152 151 162 168 171 173 172 172 173 176 181 191 199 203 204 209 214 216 212 207 207 213 221 226 223 215 203 194
217 217 217 219 220 221 222 222 222 221 221 222 223 224 225 225 225 220 210 190 190 196 202 206 207 209 210 209 207 208 210 208 203 200 197 195 194 192 189 179 157 146 150 160 165 167 168 166 165 167 170 177 188 197 201 202 203 202 194 172 145 128 121 120 134 221 215 204 191
220 219 219 220 222 222 223 223 222 222 222 223 223 223 224 224 224 219 206 183 189 197 202 202 202 203 203 199 189 181 178 182 186 190 193 193 191 186 177 159 146 138 143 156 163 165 165 163 162 163 166 173 183 190 191 185 167 143 124 115 104 92 80 72 59 49 42 57 160
222 221 221 221 223 223 223 222 222 222 223 223 223 223 223 223 222 215 199 181 191 196 199 199 198 194 183 156 129 115 109 110 135 166 179 183 181 171 157 141 130 120 121 140 160 165 166 164 162 163 164 171 180 181 173 152 133 123 116 110 100 88 78 71 63 57 53 53 70
223 223 223 223 223 223 223 222 221 222 222 223 223 223 222 222 218 206 186 181 190 192 193 191 183 169 149 129 121 110 95 79 70 72 84 95 85 92 105 115 104 90 79 85 152 168 170 166 164 163 164 169 173 167 152 135 131 127 122 115 106 93 83 75 71 68 66 65 70
224 224 223 223 223 223 222 221 221 221 221 222 222 221 219 217 206 182 164 174 179 179 175 167 152 137 125 118 115 106 92 77 65 59 59 62 61 62 69 84 82 75 63 50 101 165 172 169 165 164 165 166 161 151 140 137 134 132 128 122 114 104 93 83 79 78 76 74 72
225 224 223 223 223 222 222 221 221 219 217 217 217 215 210 196 166 147 146 151 151 148 143 135 124 116 111 107 103 99 92 83 72 66 64 65 63 61 61 67 71 70 65 55 63 125 167 171 169 168 167 161 151 144 141 140 138 135 132 126 118 111 103 94 87 82 80 78 76